Gillam Airport
CYGX : now visible

Airfield :











YOU CAN JOIN US ON...

 
LOGIN :

Register | Disclaimer

   EN    FR    IT 

 









Legend :    VFR   Marginal VFR   IFR   Intensive IFR   Very Intensive IFR
Visi :
Ceiling :
>= 8 km
>= 3000ft
5 to 8 km
1000 to 3000 ft
1500m to 5 km
500 to 1000 ft
800 to 1500m
200 to 500 ft
< 800m
< 200 ft
Symbols :   Thunderstorms  Fog  Heavy snow  Heavy precipitations  Wind > 20 kt






- Airport Elevation : 476 ft
- IATA code : YGX


CYGX - Gillam

CURRENT METAR :
  • 232200Z 00000KT 15SM SCT025 M01/M02 A3018 RMK SC4 SLP231

EXPIRED METARs :
  • 232100Z 00000KT 15SM SCT025 M00/M01 A3018 RMK SC4 SLP234
  • 232000Z VRB02KT 15SM FEW018 SCT028 M00/M01 A3018 RMK ST2SC1 SLP234

TAF TAF CYGX
Valid from the 23 at 19:00 until the 24 at 07:00 UTC


231838Z 2319/2407 VRB03KT P6SM BKN025
TEMPO 2319/2407 BKN015 RMK NXT FCST BY 240100Z
CZWG FIR / North America



MET'MAP, your aeronautical weather chart ! - Copyright ORBIFLY December 2007 - Disclaimer

ORBIFLY MET'MAP TEAM :

Programming & Development : Alexandra Zaïnal
Concept & original design : Baudouin d'Aumeries
Assistance for programming : Marc-Olivier Méhu
Technical & hardware support : Manuel Goepfert

Contact : metmap@orbifly.com




SOURCES & CREDITS :

   NOAA       Earth
Advisory